EW9267 Weather Reports


time (UTC)temp
C
wind
direction
speed
KPH
gust
KPH
rain 1hr
cm
rain 24hr
cm
rain mn
cm
humidity
%
barometer
mb
20240723061556 18 200 0.0 0.0 0.00 0.00 0.86 97 1017.8
20240723060123 18 200 0.0 0.0 0.00 0.00 0.84 97 1018.0
20240723054601 18 200 0.0 0.0 0.00 0.00 0.84 97 1017.8
20240723053055 19 200 0.0 0.0 0.00 0.00 0.84 97 1018.1
20240723051554 19 200 0.0 0.0 0.00 0.00 0.81 97 1018.0
20240723050056 19 201 0.0 0.0 0.00 0.00 0.61 97 1018.2
20240723044552 19 200 0.0 0.0 0.00 0.00 0.33 97 1018.6
20240723043050 19 200 0.0 0.0 0.00 0.00 0.03 97 1018.2
20240723041548 18 200 0.0 0.0 0.00 0.00 0.00 97 1017.9
20240723040047 18 200 0.0 0.0 0.00 0.00 0.00 97 1017.7
20240723034550 18 200 0.0 0.0 0.00 0.00 0.00 96 1017.6
20240723033045 18 200 0.0 0.0 0.00 0.00 0.00 96 1017.4
20240723031546 19 200 0.0 0.0 0.00 0.00 0.00 96 1017.6
20240723030044 19 200 0.0 0.0 0.00 0.00 0.00 96 1017.5
20240723024545 19 200 0.0 0.0 0.00 0.00 0.00 96 1017.6
20240723023056 20 200 0.0 0.0 0.00 0.00 0.00 96 1017.8
20240723021542 20 200 0.0 0.0 0.00 0.00 0.00 96 1017.7
20240723020053 20 200 0.0 0.0 0.00 0.00 0.00 96 1017.7
20240723014544 20 200 0.0 0.0 0.00 0.00 0.00 96 1017.4
20240723013047 20 200 0.0 0.0 0.00 0.00 0.00 96 1017.0
20240723011546 20 200 0.0 0.0 0.00 0.00 0.00 96 1016.9
20240723010041 20 200 0.0 0.0 0.00 0.00 0.00 95 1016.5
20240723004543 20 200 0.0 0.0 0.00 0.00 0.00 95 1016.0
20240723003048 20 200 0.0 0.0 0.00 0.00 0.00 93 1016.2
20240723001539 21 200 0.0 0.0 0.00 0.00 0.00 91 1016.3
20240723000038 21 200 0.0 0.0 0.00 0.00 0.00 88 1016.4
20240722234553 22 200 0.0 0.0 0.00 0.00 0.00 88 1016.4
20240722233037 22 200 0.0 0.0 0.00 0.00 0.00 91 1016.2
20240722231536 22 200 0.0 0.0 0.00 0.00 0.00 88 1015.8
20240722230039 23 200 0.0 0.0 0.00 0.00 0.00 87 1015.6
20240722224535 23 200 0.0 0.0 0.00 0.00 0.00 83 1015.5
20240722223035 23 200 0.0 0.0 0.00 0.00 0.00 83 1015.3
20240722221535 24 200 0.0 0.0 0.00 0.00 0.00 82 1014.9
20240722220047 24 200 0.0 0.0 0.00 0.00 0.00 80 1015.0
20240722214548 25 200 0.0 0.0 0.00 0.00 0.00 78 1015.1
20240722213033 25 200 0.0 0.0 0.00 0.00 0.00 76 1015.0
20240722211535 26 200 0.0 0.0 0.00 0.00 0.00 78 1015.0
20240722210034 25 200 0.0 0.0 0.00 0.00 0.00 77 1015.0
20240722204531 25 200 0.0 0.0 0.00 0.00 0.00 81 1015.0
20240722203027 24 200 0.0 0.0 0.00 0.00 0.00 87 1015.5
20240722201522 23 200 0.0 0.0 0.00 0.00 0.00 90 1015.8
20240722200022 23 200 0.0 0.0 0.00 0.00 0.00 91 1015.9
20240722194520 23 200 0.0 0.0 0.00 0.00 0.00 91 1015.7
20240722193018 23 200 0.0 0.0 0.00 0.00 0.00 90 1015.9
20240722191523 23 200 0.0 0.0 0.00 0.00 0.00 88 1015.9
20240722190023 23 200 0.0 0.0 0.00 0.00 0.00 87 1016.0
20240722184517 23 121 0.0 0.0 0.00 0.00 0.00 89 1016.1
20240722183017 23 88 0.0 0.0 0.00 0.00 0.00 89 1016.5
20240722181515 23 109 1.6 0.0 0.00 0.00 0.00 86 1016.5
20240722180028 25 70 0.0 0.0 0.00 0.00 0.00 83 1016.5
20240722174516 24 201 0.0 0.0 0.00 0.00 0.00 85 1016.6
20240722173016 24 201 0.0 0.0 0.00 0.00 0.00 85 1016.7
20240722171518 25 201 0.0 0.0 0.00 0.00 0.00 85 1016.9
20240722170012 24 201 1.6 0.0 0.00 0.00 0.00 85 1016.9
20240722164510 23 201 0.0 0.0 0.00 0.00 0.00 87 1017.0
20240722163007 23 201 0.0 0.0 0.00 0.00 0.00 91 1017.2
20240722161505 22 201 0.0 0.0 0.00 0.00 0.00 92 1017.4
20240722160002 22 201 0.0 0.0 0.00 0.00 0.00 92 1017.5
20240722154608 22 201 0.0 0.0 0.00 0.00 0.00 93 1017.5
20240722153100 22 200 0.0 0.0 0.00 0.00 0.00 94 1017.5
20240722151602 21 200 0.0 0.0 0.00 0.00 0.00 95 1017.4
20240722150054 21 200 0.0 0.0 0.00 0.00 0.00 96 1017.4
20240722144553 21 200 0.0 0.0 0.00 0.00 0.00 97 1017.4
20240722143054 21 200 0.0 0.0 0.00 0.00 0.00 98 1017.3
20240722141552 20 200 0.0 0.0 0.00 0.00 0.00 98 1017.1
20240722140049 20 200 0.0 0.0 0.00 0.00 0.00 98 1017.1
20240722134549 20 200 0.0 0.0 0.00 0.00 0.00 98 1017.4
20240722133044 20 200 0.0 0.0 0.00 0.00 0.00 98 1017.5
20240722131544 20 200 0.0 0.0 0.00 0.00 0.00 98 1017.5
20240722130042 19 200 0.0 0.0 0.00 0.00 0.00 98 1017.3
20240722124549 19 200 0.0 0.0 0.00 0.00 0.00 98 1017.2
20240722123044 18 200 0.0 0.0 0.00 0.00 0.00 98 1017.1
20240722121555 18 200 0.0 0.0 0.00 0.00 0.00 98 1017.1
20240722120042 18 200 0.0 0.0 0.00 0.00 0.00 98 1016.9
20240722114535 18 200 0.0 0.0 0.00 0.00 0.00 98 1016.8
20240722113034 18 200 0.0 0.0 0.00 0.00 0.00 98 1016.7
20240722111534 18 200 0.0 0.0 0.00 0.00 0.00 98 1016.9
20240722110032 18 200 0.0 0.0 0.00 0.00 0.00 98 1016.8
20240722104531 18 200 0.0 0.0 0.00 0.00 0.00 98 1016.8
20240722103031 17 200 0.0 0.0 0.00 0.00 0.00 98 1016.9
20240722101532 17 200 0.0 0.0 0.00 0.00 0.00 98 1016.9
20240722100029 17 200 0.0 0.0 0.00 0.00 0.00 98 1016.6
20240722094529 17 200 0.0 0.0 0.00 0.00 0.00 98 1016.2
20240722093041 17 200 0.0 0.0 0.00 0.00 0.00 98 1016.1
20240722091528 17 200 0.0 0.0 0.00 0.00 0.00 98 1016.0
20240722090028 17 200 0.0 0.0 0.00 0.00 0.00 98 1016.0
20240722084538 17 200 0.0 0.0 0.00 0.00 0.00 98 1015.9
20240722083025 17 200 0.0 0.0 0.00 0.00 0.00 98 1016.1
20240722081523 17 200 0.0 0.0 0.00 0.00 0.00 98 1016.2
20240722080023 17 200 0.0 0.0 0.00 0.00 0.00 98 1016.2
20240722074525 18 200 0.0 0.0 0.00 0.00 0.00 98 1016.3
20240722073023 17 200 0.0 0.0 0.00 0.00 0.00 98 1016.5
20240722071524 17 200 0.0 0.0 0.00 0.00 0.00 98 1016.5
20240722070025 17 200 0.0 0.0 0.00 0.00 0.00 98 1016.9
20240722064527 17 200 0.0 0.0 0.00 0.00 0.00 98 1016.8
20240722063048 17 200 0.0 0.0 0.00 0.00 0.00 98 1016.9